TimeCST,TemperatureF,Dew PointF,Humidity,Sea Level PressureIn,VisibilityMPH,Wind Direction,Wind SpeedMPH,Gust SpeedMPH,PrecipitationIn,Events,Conditions,WindDirDegrees,DateUTC
12:48 AM,37.4,35.6,93,29.64,1.5,South,3.5,-,N/A,,Clear,180,2013-12-03 06:48:00
12:53 AM,37.0,36.0,96,29.65,1.2,South,3.5,-,N/A,,Clear,170,2013-12-03 06:53:00
1:06 AM,35.6,35.6,100,29.63,0.5,South,4.6,-,N/A,Fog,Fog,170,2013-12-03 07:06:00
1:13 AM,35.6,33.8,93,29.63,0.5,South,5.8,-,N/A,Fog,Fog,170,2013-12-03 07:13:00
1:18 AM,35.6,35.6,100,29.63,1.2,SSE,3.5,-,N/A,,Partly Cloudy,160,2013-12-03 07:18:00
1:53 AM,35.1,35.1,100,29.63,1.2,SSE,4.6,-,N/A,,Partly Cloudy,160,2013-12-03 07:53:00
2:40 AM,35.6,35.6,100,29.61,0.8,Calm,Calm,-,N/A,,Mist,0,2013-12-03 08:40:00
2:53 AM,36.0,35.1,97,29.62,0.2,South,3.5,-,N/A,Fog,Fog,180,2013-12-03 08:53:00
3:53 AM,34.0,34.0,100,29.64,0.2,South,4.6,-,N/A,Fog,Fog,180,2013-12-03 09:53:00
4:12 AM,35.6,35.6,100,29.63,1.0,South,4.6,-,N/A,,Mist,190,2013-12-03 10:12:00
4:23 AM,35.6,35.6,100,29.63,0.5,South,3.5,-,N/A,Fog,Fog,170,2013-12-03 10:23:00
4:27 AM,35.6,35.6,100,29.63,0.2,Calm,Calm,-,N/A,Fog,Fog,0,2013-12-03 10:27:00
4:50 AM,33.8,33.8,100,29.61,0.5,SE,3.5,-,N/A,Fog,Fog,130,2013-12-03 10:50:00
4:53 AM,35.1,35.1,100,29.63,0.8,SE,3.5,-,N/A,,Mist,130,2013-12-03 10:53:00
5:01 AM,35.6,35.6,100,29.61,1.0,SE,3.5,-,N/A,,Partly Cloudy,130,2013-12-03 11:01:00
5:21 AM,35.6,35.6,100,29.62,0.8,East,3.5,-,N/A,,Partly Cloudy,100,2013-12-03 11:21:00
5:43 AM,35.6,35.6,100,29.62,0.5,ESE,3.5,-,N/A,Fog,Fog,120,2013-12-03 11:43:00
5:46 AM,35.6,35.6,100,29.62,0.2,ESE,3.5,-,N/A,Fog,Fog,110,2013-12-03 11:46:00
5:53 AM,35.1,35.1,100,29.63,0.2,ESE,4.6,-,N/A,Fog,Fog,120,2013-12-03 11:53:00
6:00 AM,35.6,35.6,100,29.62,0.5,ESE,4.6,-,N/A,Fog,Fog,120,2013-12-03 12:00:00
6:19 AM,35.6,35.6,100,29.62,0.2,SE,3.5,-,N/A,Fog,Fog,140,2013-12-03 12:19:00
6:29 AM,35.6,35.6,100,29.62,0.2,ESE,3.5,-,N/A,Fog,Fog,110,2013-12-03 12:29:00
6:53 AM,35.1,35.1,100,29.65,0.2,SE,4.6,-,N/A,Fog,Fog,140,2013-12-03 12:53:00
7:06 AM,35.6,35.6,100,29.63,0.2,SE,3.5,-,N/A,Fog,Fog,130,2013-12-03 13:06:00
7:21 AM,35.6,35.6,100,29.63,0.2,SE,3.5,-,N/A,Fog,Fog,140,2013-12-03 13:21:00
7:48 AM,35.6,35.6,100,29.62,0.2,SE,4.6,-,N/A,Fog,Fog,140,2013-12-03 13:48:00
7:53 AM,37.0,37.0,100,29.63,0.5,ESE,4.6,-,N/A,Fog,Fog,120,2013-12-03 13:53:00
8:46 AM,39.2,37.4,93,29.62,1.0,SE,5.8,-,N/A,,Clear,140,2013-12-03 14:46:00
8:53 AM,39.0,37.9,96,29.64,1.2,SE,4.6,-,N/A,,Clear,130,2013-12-03 14:53:00
9:53 AM,41.0,41.0,100,29.64,2.0,South,4.6,-,N/A,,Clear,170,2013-12-03 15:53:00
10:14 AM,42.8,42.8,100,29.64,2.5,South,4.6,-,N/A,,Partly Cloudy,190,2013-12-03 16:14:00
10:30 AM,42.8,42.8,100,29.64,3.0,South,5.8,-,N/A,,Partly Cloudy,170,2013-12-03 16:30:00
10:53 AM,44.1,42.1,93,29.66,3.0,South,6.9,-,N/A,,Partly Cloudy,180,2013-12-03 16:53:00
11:13 AM,44.6,42.8,93,29.64,4.0,SE,4.6,-,N/A,,Mostly Cloudy,140,2013-12-03 17:13:00
11:53 AM,46.0,43.0,89,29.65,4.0,SSE,5.8,-,0.00,Rain,Light Rain,150,2013-12-03 17:53:00
12:00 PM,46.4,44.6,93,29.63,4.0,SE,4.6,-,0.00,,Mostly Cloudy,140,2013-12-03 18:00:00
12:53 PM,46.9,44.1,90,29.62,5.0,SSE,5.8,-,0.00,,Mostly Cloudy,160,2013-12-03 18:53:00
1:53 PM,51.1,46.0,83,29.57,6.0,SSE,12.7,-,N/A,,Haze,150,2013-12-03 19:53:00
2:53 PM,52.0,46.0,80,29.57,6.0,South,10.4,-,N/A,,Haze,170,2013-12-03 20:53:00
3:24 PM,51.8,46.4,82,29.59,6.0,SW,5.8,-,N/A,,Haze,220,2013-12-03 21:24:00
3:53 PM,51.1,46.0,83,29.60,6.0,SSE,5.8,-,N/A,,Haze,150,2013-12-03 21:53:00
4:53 PM,48.9,46.0,90,29.61,5.0,SE,4.6,-,N/A,,Overcast,130,2013-12-03 22:53:00
5:16 PM,48.2,46.4,93,29.61,5.0,SE,4.6,-,N/A,,Mostly Cloudy,130,2013-12-03 23:16:00
5:26 PM,48.2,46.4,93,29.62,4.0,SE,4.6,-,N/A,,Overcast,140,2013-12-03 23:26:00
5:53 PM,50.0,46.9,89,29.64,4.0,Calm,Calm,-,N/A,,Overcast,0,2013-12-03 23:53:00
6:53 PM,50.0,46.9,89,29.64,5.0,East,5.8,-,N/A,,Overcast,90,2013-12-04 00:53:00
7:53 PM,48.9,46.9,93,29.65,3.0,SE,6.9,-,N/A,,Mostly Cloudy,130,2013-12-04 01:53:00
8:01 PM,48.2,46.4,93,29.64,3.0,SE,6.9,-,N/A,,Scattered Clouds,130,2013-12-04 02:01:00
8:29 PM,48.2,46.4,93,29.63,2.5,SE,8.1,-,N/A,,Clear,130,2013-12-04 02:29:00
8:53 PM,46.9,46.0,97,29.65,2.5,SE,5.8,-,N/A,,Clear,130,2013-12-04 02:53:00
9:27 PM,46.4,46.4,100,29.64,1.8,SE,5.8,-,N/A,,Clear,140,2013-12-04 03:27:00
9:53 PM,46.0,45.0,96,29.64,1.2,SE,5.8,-,N/A,,Clear,140,2013-12-04 03:53:00
10:30 PM,46.4,46.4,100,29.62,2.0,SE,6.9,-,N/A,,Clear,140,2013-12-04 04:30:00
10:53 PM,46.0,46.0,100,29.65,2.0,SSE,5.8,-,N/A,,Clear,160,2013-12-04 04:53:00
11:53 PM,46.0,45.0,96,29.66,2.0,SSE,4.6,-,N/A,,Clear,160,2013-12-04 05:53:00